Regional Weather Roundup
Issued by NWS

Home | Current Version | Previous Version | Graphics & Text | Print | Product List | Glossary On
Versions: 1 2 3 4 5 6 7 8 9 10 11 12 13 14 15 16 17 18 19 20 21 22 23 24 25 26 27 28 29 30 31 32 33 34 35 36 37 38 39 40 41 42 43 44 45 46 47 48 49 50
000
ASUS43 KOAX 251902
RWRNE

WEATHER ROUNDUP FOR NEBRASKA
NATIONAL WEATHER SERVICE OMAHA NE
200 PM CDT SAT OCT 25 2014

NOTES: SATELLITE DATA IS BEING USED TO AUGMENT CLOUD COVER ABOVE
       12000 FEET.
       "FAIR" INDICATES FEW OR NO CLOUDS BELOW 12,000 FEET WITH NO
       SIGNIFICANT WEATHER AND/OR OBSTRUCTIONS TO VISIBILITY.

  * THESE STATIONS DO NOT REPORT WEATHER SUCH AS RAIN...SNOW OR FOG.

NEZ001>004-019>022-054>056-252000-
NEBRASKA PANHANDLE

CITY           SKY/WX    TMP DP  RH WIND       PRES   REMARKS
SCOTTSBLUFF    SUNNY     70  39  32 E3        30.09F
ALLIANCE       SUNNY     68  39  34 E5        30.11F
CHADRON        SUNNY     65  40  39 E7        30.08F
KIMBALL        SUNNY     79  27  15 S3        30.12F
SIDNEY         SUNNY     77  33  20 VRB5      30.13F
$$

NEZ057>060-069>072-079>082-252000-
SOUTHWEST NEBRASKA

CITY           SKY/WX    TMP DP  RH WIND       PRES   REMARKS
NORTH PLATTE   SUNNY     73  46  38 SE10      30.08F
IMPERIAL       SUNNY     76  35  22 SE5       30.09F
LEXINGTON      SUNNY     74  45  35 E9        30.08F
MCCOOK         SUNNY     77  47  34 E8        30.07F
OGALLALA       SUNNY     73  39  29 NE5       30.09F
$$

NEZ005>010-023>029-035>040-094-252000-
NORTH CENTRAL NEBRASKA

CITY           SKY/WX    TMP DP  RH WIND       PRES   REMARKS
VALENTINE      SUNNY     67  29  24 SE13      30.12F
AINSWORTH      SUNNY     66  31  27 E9G17     30.12F
BROKEN BOW     SUNNY     72  43  35 E10       30.09F
O`NEILL        SUNNY     68  34  28 E7        30.13F
ORD            SUNNY     69  39  33 SE7       30.10F
THEDFORD       SUNNY     70  38  31 E8        30.11F
$$

NEZ041-046>049-061>064-073>077-083>087-252000-
SOUTH CENTRAL NEBRASKA

CITY           SKY/WX    TMP DP  RH WIND       PRES   REMARKS
GRAND ISLAND   SUNNY     73  44  35 VRB7      30.09F
AURORA         SUNNY     73  41  31 NE7       30.09F
HASTINGS       SUNNY     73  43  33 SE10      30.07F
HEBRON         SUNNY     77  42  28 SE5       30.06F
HOLDREGE       SUNNY     74  46  36 CALM      30.07F
KEARNEY *      SUNNY     72  46  40 NE9       30.09F
YORK           SUNNY     70  45  40 E7        30.10F
$$

NEZ011>018-030>034-042>045-252000-
NORTHEAST NEBRASKA

CITY           SKY/WX    TMP DP  RH WIND       PRES   REMARKS
NORFOLK        SUNNY     70  37  29 NE6       30.11F
ALBION         SUNNY     69  38  32 E9        30.11F
BLAIR          SUNNY     72  40  32 CALM      30.10F
COLUMBUS *     SUNNY     70  39  32 E10       30.12F
FREMONT        SUNNY     70  40  33 NE3       30.11F
TEKAMAH        SUNNY     73  39  29 CALM      30.10F
WAYNE          SUNNY     69  32  25 NE6       30.13F
$$

NEZ050>053-065>068-078-088>093-252000-
SOUTHEAST NEBRASKA

CITY           SKY/WX    TMP DP  RH WIND       PRES   REMARKS
LINCOLN        SUNNY     72  44  36 NE10      30.09F
OMAHA EPPLEY   MOSUNNY   73  40  30 CALM      30.09F
BEATRICE       SUNNY     74  49  40 E7        30.07F
FALLS CITY     SUNNY     76  51  41 SE5       30.06F
NEBRASKA CITY  SUNNY     73  36  26 NE7       30.08F
PLATTSMOUTH    SUNNY     72  38  28 N5        30.09F
$$

NEZ044-045-051>053-067-252000-
OMAHA AREA

CITY           SKY/WX    TMP DP  RH WIND       PRES   REMARKS
OMAHA EPPLEY   MOSUNNY   73  40  30 CALM      30.09F
BLAIR          SUNNY     72  40  32 CALM      30.10F
FREMONT        SUNNY     70  40  33 NE3       30.11F
OFFUTT AFB     HAZE      73  43  33 VRB3      30.08F VSB 1/2
PLATTSMOUTH    SUNNY     72  38  28 N5        30.09F
WAHOO          FAIR      72  37  27 E3        30.10F
$$



USA.gov is the U.S. government's official web portal to all federal, state and local government web resources and services.